| time (UTC) | temp C | wind direction | speed KPH | gust KPH | rain 1hr cm | rain 24hr cm | rain mn cm | humidity % | barometer mb |
| 20260506035125 | 7 | 42 | 0.0 | 9.7 | 0.00 | 0.41 | 0.43 | 95 | 1012.5 |
| 20260506034144 | 7 | 69 | 1.6 | 9.7 | 0.00 | 0.41 | 0.43 | 96 | 1012.6 |
| 20260506033200 | 7 | 14 | 3.2 | 11.3 | 0.00 | 0.41 | 0.43 | 95 | 1012.8 |
| 20260506032216 | 7 | 12 | 3.2 | 14.5 | 0.00 | 0.41 | 0.43 | 95 | 1013.1 |
| 20260506031235 | 7 | 0 | 3.2 | 14.5 | 0.00 | 0.41 | 0.43 | 95 | 1012.1 |
| 20260506025102 | 7 | 134 | 1.6 | 11.3 | 0.13 | 0.41 | 0.41 | 95 | 1011.3 |
| 20260506024126 | 7 | 331 | 1.6 | 14.5 | 0.69 | 0.36 | 0.41 | 95 | 1011.6 |
| 20260506023149 | 7 | 60 | 1.6 | 12.9 | 0.00 | 0.30 | 0.30 | 95 | 1011.4 |
| 20260506022129 | 7 | 108 | 3.2 | 14.5 | 0.00 | 0.30 | 0.30 | 95 | 1011.2 |
| 20260506021144 | 7 | 317 | 1.6 | 12.9 | 0.00 | 0.30 | 0.30 | 95 | 1011.1 |
| 20260506020149 | 7 | 149 | 1.6 | 12.9 | 0.00 | 0.30 | 0.30 | 95 | 1010.9 |
| 20260506014049 | 7 | 138 | 0.0 | 11.3 | 0.00 | 0.30 | 0.30 | 95 | 1010.6 |
| 20260506013029 | 7 | 24 | 1.6 | 11.3 | 0.00 | 0.30 | 0.30 | 95 | 1010.6 |
| 20260506010919 | 7 | 140 | 1.6 | 11.3 | 0.00 | 0.30 | 0.30 | 95 | 1010.2 |
| 20260506005920 | 7 | 73 | 1.6 | 11.3 | 0.00 | 0.30 | 0.30 | 95 | 1010.1 |
| 20260506004912 | 7 | 150 | 1.6 | 11.3 | 0.00 | 0.30 | 0.30 | 95 | 1010.1 |
| 20260506002736 | 7 | 92 | 3.2 | 16.1 | 0.00 | 0.25 | 0.25 | 95 | 1009.5 |
| 20260506001707 | 7 | 105 | 3.2 | 12.9 | 0.00 | 0.25 | 0.25 | 95 | 1009.6 |
| 20260506000645 | 7 | 221 | 1.6 | 14.5 | 0.00 | 0.25 | 0.25 | 95 | 1009.0 |
| 20260505235633 | 7 | 65 | 3.2 | 16.1 | 0.00 | 0.25 | 0.25 | 95 | 1009.0 |
| 20260505234621 | 7 | 122 | 3.2 | 16.1 | 0.00 | 0.25 | 0.25 | 95 | 1009.5 |
| 20260505232517 | 7 | 85 | 4.8 | 19.3 | 0.00 | 0.25 | 0.25 | 94 | 1008.9 |
| 20260505231538 | 8 | 59 | 3.2 | 19.3 | 0.00 | 0.25 | 0.25 | 94 | 1008.5 |
| 20260505230514 | 8 | 109 | 3.2 | 16.1 | 0.00 | 0.23 | 0.25 | 94 | 1008.9 |
| 20260505225505 | 8 | 143 | 3.2 | 16.1 | 0.00 | 0.23 | 0.25 | 93 | 1008.7 |
| 20260505224503 | 8 | 185 | 3.2 | 16.1 | 0.00 | 0.23 | 0.25 | 92 | 1009.1 |
| 20260505223506 | 8 | 63 | 3.2 | 16.1 | 0.00 | 0.23 | 0.25 | 91 | 1008.9 |
| 20260505222510 | 8 | 235 | 3.2 | 22.5 | 0.00 | 0.23 | 0.25 | 91 | 1008.5 |
| 20260505221503 | 8 | 148 | 6.4 | 22.5 | 0.00 | 0.23 | 0.25 | 90 | 1008.2 |
| 20260505215339 | 8 | 11 | 3.2 | 20.9 | 0.00 | 0.23 | 0.25 | 91 | 1008.4 |
| 20260505213224 | 8 | 243 | 3.2 | 12.9 | 0.00 | 0.23 | 0.25 | 91 | 1008.5 |
| 20260505212239 | 9 | 21 | 3.2 | 14.5 | 0.00 | 0.23 | 0.25 | 93 | 1008.2 |
| 20260505211217 | 9 | 140 | 3.2 | 14.5 | 0.00 | 0.23 | 0.25 | 93 | 1008.1 |
| 20260505210225 | 9 | 13 | 3.2 | 9.7 | 0.00 | 0.23 | 0.25 | 93 | 1008.1 |
| 20260505205151 | 10 | 165 | 1.6 | 9.7 | 0.00 | 0.23 | 0.25 | 94 | 1008.2 |
| 20260505204144 | 10 | 43 | 3.2 | 11.3 | 0.00 | 0.23 | 0.25 | 93 | 1008.4 |
| 20260505203204 | 10 | 41 | 1.6 | 11.3 | 0.00 | 0.23 | 0.25 | 94 | 1008.1 |
| 20260505202212 | 10 | 98 | 1.6 | 12.9 | 0.00 | 0.23 | 0.25 | 94 | 1007.8 |
| 20260505201222 | 10 | 74 | 3.2 | 12.9 | 0.00 | 0.23 | 0.25 | 94 | 1007.4 |
| 20260505200153 | 10 | 306 | 4.8 | 12.9 | 0.00 | 0.23 | 0.25 | 94 | 1007.5 |
| 20260505195204 | 10 | 95 | 3.2 | 12.9 | 0.00 | 0.23 | 0.25 | 93 | 1007.8 |
| 20260505193053 | 11 | 132 | 3.2 | 19.3 | 0.00 | 0.23 | 0.25 | 91 | 1008.2 |
| 20260505192103 | 11 | 102 | 3.2 | 24.1 | 0.00 | 0.23 | 0.25 | 91 | 1007.6 |
| 20260505191113 | 11 | 123 | 8.0 | 24.1 | 0.00 | 0.23 | 0.25 | 89 | 1007.4 |
| 20260505190111 | 11 | 114 | 3.2 | 16.1 | 0.00 | 0.23 | 0.25 | 87 | 1007.6 |
| 20260505185133 | 12 | 94 | 3.2 | 20.9 | 0.00 | 0.23 | 0.25 | 89 | 1007.7 |
| 20260505184111 | 12 | 102 | 4.8 | 20.9 | 0.00 | 0.23 | 0.25 | 87 | 1007.8 |
| 20260505182036 | 12 | 108 | 6.4 | 19.3 | 0.00 | 0.23 | 0.25 | 86 | 1007.3 |
| 20260505181032 | 13 | 123 | 4.8 | 19.3 | 0.00 | 0.23 | 0.25 | 87 | 1007.1 |
| 20260505180040 | 13 | 136 | 4.8 | 16.1 | 0.00 | 0.23 | 0.25 | 86 | 1007.1 |
| 20260505175029 | 13 | 148 | 3.2 | 14.5 | 0.00 | 0.23 | 0.25 | 86 | 1007.2 |
| 20260505174037 | 13 | 80 | 1.6 | 19.3 | 0.00 | 0.23 | 0.25 | 87 | 1007.2 |
| 20260505173029 | 13 | 157 | 4.8 | 19.3 | 0.00 | 0.23 | 0.25 | 87 | 1007.3 |
| 20260505170912 | 13 | 95 | 4.8 | 14.5 | 0.00 | 0.23 | 0.25 | 87 | 1007.2 |
| 20260505165902 | 13 | 322 | 3.2 | 16.1 | 0.00 | 0.23 | 0.25 | 87 | 1007.2 |
| 20260505163750 | 13 | 128 | 3.2 | 12.9 | 0.00 | 0.23 | 0.25 | 85 | 1007.1 |
| 20260505161641 | 13 | 51 | 4.8 | 19.3 | 0.00 | 0.23 | 0.25 | 88 | 1007.4 |
| 20260505160616 | 14 | 48 | 4.8 | 19.3 | 0.00 | 0.23 | 0.25 | 88 | 1007.6 |
| 20260505152647 | 15 | 130 | 9.7 | 17.7 | 0.00 | 0.23 | 0.25 | 88 | 1006.1 |
| 20260505151637 | 15 | 188 | 6.4 | 17.7 | 0.00 | 0.23 | 0.25 | 88 | 1006.0 |
| 20260505150608 | 15 | 113 | 8.0 | 14.5 | 0.00 | 0.23 | 0.25 | 86 | 1006.2 |
| 20260505140403 | 15 | 159 | 4.8 | 11.3 | 0.00 | 0.23 | 0.25 | 88 | 1006.2 |
| 20260505130300 | 13 | 126 | 4.8 | 16.1 | 0.00 | 0.23 | 0.25 | 89 | 1005.8 |
| 20260505124322 | 13 | 162 | 4.8 | 17.7 | 0.00 | 0.23 | 0.25 | 90 | 1005.7 |
| 20260505122208 | 14 | 173 | 6.4 | 16.1 | 0.00 | 0.23 | 0.25 | 91 | 1005.3 |
| 20260505121223 | 14 | 161 | 4.8 | 12.9 | 0.00 | 0.23 | 0.25 | 92 | 1005.6 |
| 20260505120240 | 14 | 108 | 1.6 | 12.9 | 0.00 | 0.23 | 0.25 | 92 | 1005.2 |
| 20260505115226 | 15 | 118 | 0.0 | 14.5 | 0.00 | 0.23 | 0.25 | 92 | 1005.4 |
| 20260505114203 | 15 | 175 | 1.6 | 9.7 | 0.00 | 0.23 | 0.25 | 93 | 1005.2 |
| 20260505113131 | 15 | 71 | 3.2 | 14.5 | 0.00 | 0.23 | 0.25 | 94 | 1004.5 |
| 20260505112142 | 15 | 220 | 1.6 | 1.6 | 0.00 | 0.23 | 0.25 | 95 | 1004.6 |
| 20260505111155 | 15 | 355 | 1.6 | 12.9 | 0.00 | 0.23 | 0.25 | 95 | 1005.8 |
| 20260505110139 | 15 | 67 | 3.2 | 12.9 | 0.00 | 0.23 | 0.25 | 94 | 1004.9 |
| 20260505102005 | 14 | 38 | 0.0 | 4.8 | 0.00 | 0.23 | 0.25 | 96 | 1004.4 |
| 20260505100958 | 15 | 203 | 0.0 | 0.0 | 0.00 | 0.23 | 0.25 | 95 | 1004.2 |
| 20260505100006 | 15 | 203 | 0.0 | 0.0 | 0.00 | 0.23 | 0.25 | 95 | 1004.0 |
| 20260505095005 | 15 | 203 | 0.0 | 0.0 | 0.00 | 0.23 | 0.25 | 94 | 1003.5 |
| 20260505094020 | 15 | 203 | 0.0 | 8.0 | 0.10 | 0.23 | 0.25 | 93 | 1003.5 |
| 20260505093002 | 15 | 290 | 4.8 | 16.1 | 0.10 | 0.23 | 0.25 | 94 | 1003.1 |
| 20260505092000 | 15 | 240 | 6.4 | 16.1 | 0.13 | 0.23 | 0.23 | 95 | 1002.7 |
| 20260505090947 | 15 | 211 | 1.6 | 6.4 | 0.15 | 0.20 | 0.20 | 94 | 1004.3 |
| 20260505084904 | 16 | 264 | 0.0 | 6.4 | 0.58 | 0.10 | 0.13 | 92 | 1005.3 |
| 20260505083845 | 16 | 22 | 0.0 | 0.0 | 0.20 | 0.05 | 0.05 | 91 | 1005.4 |
| 20260505082836 | 16 | 340 | 0.0 | 3.2 | 0.00 | 0.00 | 0.03 | 89 | 1005.3 |
| 20260505080638 | 17 | 204 | 3.2 | 16.1 | 0.00 | 0.00 | 0.00 | 83 | 1004.6 |
| 20260505075632 | 17 | 264 | 1.6 | 16.1 | 0.00 | 0.00 | 0.00 | 81 | 1004.7 |
| 20260505074602 | 17 | 236 | 0.0 | 6.4 | 0.00 | 0.00 | 0.00 | 81 | 1004.5 |
| 20260505073529 | 17 | 263 | 0.0 | 0.0 | 0.00 | 0.00 | 0.00 | 81 | 1004.5 |
| 20260505072544 | 17 | 202 | 0.0 | 4.8 | 0.00 | 0.00 | 0.00 | 80 | 1004.3 |
| 20260505071544 | 17 | 171 | 0.0 | 8.0 | 0.00 | 0.00 | 0.00 | 81 | 1004.4 |
| 20260505065400 | 17 | 206 | 0.0 | 8.0 | 0.00 | 0.00 | 0.00 | 81 | 1004.3 |
| 20260505064412 | 17 | 265 | 0.0 | 8.0 | 0.00 | 0.00 | 0.00 | 80 | 1004.7 |
| 20260505063429 | 17 | 245 | 1.6 | 8.0 | 0.00 | 0.00 | 0.00 | 80 | 1005.0 |
| 20260505061309 | 17 | 162 | 0.0 | 3.2 | 0.00 | 0.00 | 0.00 | 80 | 1005.2 |
| 20260505060300 | 17 | 266 | 1.6 | 9.7 | 0.00 | 0.00 | 0.00 | 80 | 1005.1 |
| 20260505055226 | 17 | 221 | 1.6 | 8.0 | 0.00 | 0.00 | 0.00 | 80 | 1005.0 |
| 20260505053048 | 17 | 238 | 0.0 | 8.0 | 0.00 | 0.00 | 0.00 | 80 | 1005.1 |
| 20260505052038 | 17 | 236 | 1.6 | 9.7 | 0.00 | 0.00 | 0.00 | 80 | 1005.1 |
| 20260505051005 | 17 | 227 | 1.6 | 9.7 | 0.00 | 0.00 | 0.00 | 81 | 1005.2 |
| 20260505041017 | 16 | 247 | 0.0 | 1.6 | 0.00 | 0.00 | 0.00 | 81 | 1005.9 |
| 20260505040031 | 17 | 261 | 0.0 | 1.6 | 0.00 | 0.00 | 0.00 | 81 | 1006.1 |